Weather observations for the past three days for
Henry County Airport
Imperial (Metric)
Date Time (edt) Wind (mph) Vis. (mi.) Weather Sky Cond. Temperature (ºF) Relative Humidity Wind Chill (°F) Heat Index (°F) Pressure Precipitation (in)
Air Dwpt 6 hour altimeter (in) sea level (mb) 1 hr 3 hr 6 hr
Max. Min.
22 18:15 SW 8 10.00 Partly Cloudy SCT041 SCT050 84.4 69.8 62% 89 30.06 0.0
22 17:55 SW 5 10.00 Fair CLR 86 70.5 60% 91 30.06 0.0
22 17:15 SW 6 10.00 Mostly Cloudy SCT040 SCT046 BKN050 85.8 70.7 61% 91 30.06 0.0
22 16:55 SW 8 10.00 Mostly Cloudy BKN038 BKN046 BKN060 84.4 70.7 64% 89 30.07 0.0
22 16:35 SW 8 10.00 Mostly Cloudy SCT035 BKN043 BKN060 85.5 70.2 60% 90 30.07 0.0
22 16:15 W 5 10.00 Mostly Cloudy BKN033 BKN043 84.7 70 61% 89 30.07 0.0
22 15:55 SW 3 10.00 Mostly Cloudy BKN033 BKN038 BKN047 84.9 70.3 62% 90 30.08 0.0
22 15:35 S 6 10.00 Mostly Cloudy BKN034 BKN045 83.8 71.6 67% 89 30.09 0.0
22 15:15 W 3 10.00 Mostly Cloudy SCT029 SCT036 BKN046 83.1 70.9 67% 88 30.1 0.0
22 14:55 SW 7 10.00 Mostly Cloudy BKN027 BKN034 83.1 71.6 68% 88 30.1 0.0
22 14:35 SW 3 10.00 Partly Cloudy SCT027 82.4 69.8 66% 86 30.11 0.0
22 14:15 SW 5 10.00 Partly Cloudy SCT021 82.2 71.1 69% 87 30.12 0.0
22 13:55 SW 6 10.00 Partly Cloudy SCT021 81.5 72 82 70.5 73% 86 30.12 0.0
22 13:35 W 6 10.00 Partly Cloudy SCT021 80.2 69.8 71% 83 30.13 0.0
22 13:15 SW 5 10.00 Partly Cloudy SCT021 SCT025 79.5 70.5 74% 83 30.13 0.0
22 12:55 Calm 10.00 Partly Cloudy SCT021 79.3 70 73% 82 30.13 0.0
22 12:35 W 3 10.00 Fair CLR 79.3 70.5 75% 82 30.13 0.0
22 12:15 W 3 10.00 Partly Cloudy SCT016 79 71.2 77% 82 30.14 0.0
22 11:55 W 3 10.00 Partly Cloudy SCT016 78.4 70.5 77% 81 30.15 0.0
22 11:35 NW 5 10.00 Mostly Cloudy BKN016 79 72 79% 82 30.15 0.0
22 11:15 W 3 10.00 Mostly Cloudy BKN014 77.4 71.1 81% 79 30.15 0.0
22 10:55 SW 3 10.00 Mostly Cloudy BKN009 BKN015 77.9 72 82% 80 30.14 0.0
22 10:35 W 6 10.00 Overcast OVC009 75 70.9 87% 75 30.14 0.0
22 10:15 SW 6 10.00 Overcast OVC007 74.7 70.9 88% 30.14 0.0
22 09:55 W 5 10.00 Mostly Cloudy BKN005 BKN010 73 70.5 92% 30.14 0.0
22 09:35 W 5 10.00 Overcast OVC003 72.5 70.7 94% 30.14 0.0
22 09:15 W 3 10.00 Overcast OVC003 72.1 70.5 95% 30.14 0.0
22 08:55 SW 3 10.00 Overcast OVC003 71.4 70.2 96% 30.13 0.0
22 08:35 SW 3 10.00 Overcast OVC003 71.2 70.2 96% 30.12 0.0
22 08:15 Calm 10.00 Overcast OVC003 70.9 70 97% 30.11 0.0
22 07:55 Calm 10.00 Overcast OVC003 70.5 69.8 71.1 69.1 98% 30.11 0.0 0.01
22 07:35 Calm 5.00 Fog/Mist OVC003 70.3 69.8 98% 30.11 0.0
22 07:15 Calm 10.00 Overcast OVC005 70.2 69.4 98% 30.1 0.0
22 06:55 Calm 10.00 Overcast OVC005 70 69.4 98% 30.1 0.0
22 06:35 Calm 10.00 Overcast OVC005 70.2 69.4 98% 30.09 0.0
22 06:15 Calm 10.00 Overcast BKN005 OVC010 69.8 69.3 98% 30.09 0.0
22 05:55 Calm 10.00 Overcast OVC009 69.4 68.9 98% 30.09 0.0
22 05:35 Calm 10.00 Partly Cloudy SCT011 69.3 68.9 99% 30.09 0.0
22 05:15 Calm 10.00 Fair CLR 69.6 69.1 98% 30.08 0.0
22 04:55 Calm 10.00 Fair CLR 69.6 68.9 98% 30.08 0.0 0.01
22 04:35 Calm 10.00 Partly Cloudy SCT120 70 69.4 98% 30.08 0.0
22 04:15 Calm 10.00 Mostly Cloudy SCT002 BKN120 70 69.4 98% 30.09 0.0
22 03:55 Calm 10.00 Partly Cloudy SCT110 70.2 69.6 98% 30.09 0.0 0.01
22 03:35 Calm 10.00 Partly Cloudy SCT003 70.3 69.8 98% 30.09 0.0
22 03:15 Calm 10.00 Partly Cloudy SCT003 70.2 69.6 98% 30.1 0.0
22 02:55 Calm 10.00 Fair CLR 70.3 69.8 98% 30.1 0.0
22 02:35 Calm 10.00 Partly Cloudy SCT120 70.5 70 98% 30.1 0.0
22 02:15 Calm 10.00 Mostly Cloudy BKN120 70.7 70.2 98% 30.1 0.0
22 01:55 Calm 10.00 Fair CLR 71.1 70.3 72.3 70.9 98% 30.1 0.0 0.01
22 01:35 Calm 10.00 Fair CLR 70.9 70.3 98% 30.11 0.0
22 01:15 Calm 10.00 Partly Cloudy SCT003 SCT060 71.1 70.5 98% 30.11 0.0
22 00:55 Calm 10.00 Light Rain SCT003 SCT028 SCT120 71.2 70.5 98% 30.12 0.0
22 00:35 Calm 10.00 Light Rain SCT028 SCT050 SCT110 71.2 70.5 98% 30.13 0.0
22 00:15 NW 3 10.00 Light Rain CLR 71.2 70.5 98% 30.13 0.0
21 23:55 SE 5 10.00 Partly Cloudy BKN005 SCT060 SCT100 71.6 70.7 97% 30.13 0.0
21 23:35 SE 5 10.00 Mostly Cloudy BKN005 71.6 70.7 97% 30.13 0.0
21 23:15 SE 3 10.00 Partly Cloudy SCT005 SCT120 71.4 70.7 98% 30.14 0.0
21 22:55 S 3 10.00 Partly Cloudy SCT120 71.6 70.7 97% 30.14 0.0 0.01 0.01
21 22:35 S 3 10.00 Fair CLR 71.8 71.1 98% 30.13 0.0 0.01
21 22:15 Calm 10.00 Light Rain BKN003 BKN026 BKN060 71.6 71.1 98% 30.12 0.0
21 21:55 SW 3 10.00 Overcast OVC003 71.6 70.9 98% 30.12 0.0
21 21:35 SW 3 10.00 Mostly Cloudy BKN003 71.6 70.9 98% 30.11 0.0
21 21:15 SW 5 10.00 Partly Cloudy SCT003 71.6 70.9 98% 30.1 0.0
21 20:55 W 5 10.00 Partly Cloudy SCT003 SCT009 SCT120 71.8 71.1 98% 30.09 0.0
21 20:35 SW 3 10.00 Light Rain SCT005 SCT023 SCT120 72.3 71.1 96% 30.09 0.0
21 20:15 SE 5 10.00 Light Rain BKN120 72 70.7 96% 30.1 0.0
21 19:55 S 6 10.00 Light Rain SCT037 OVC110 72 70.9 85.3 72 96% 30.1 0.0 0.06 0.17
21 19:35 S 5 10.00 Light Rain SCT006 SCT035 OVC110 72.3 71.2 96% 30.1 0.0 0.04
21 19:15 SW 7 10.00 Rain SCT008 SCT036 OVC110 72.7 71.6 96% 30.09 0.0 0.03
21 18:55 SW 8 10.00 Light Rain SCT006 SCT028 OVC110 73 71.8 96% 30.09 0.0 0.07
21 18:35 S 10 10.00 Rain SCT006 SCT030 OVC110 73.8 72.3 95% 30.09 0.0 0.04
21 18:15 S 8 10.00 Thunderstorm Light Rain in Vicinity OVC110 74.7 72.3 92% 30.08 0.0 0.02
21 17:55 SW 6 7.00 Rain OVC110 75.9 73.8 93% 76 30.08 0.0 0.04
21 17:35 S 5 10.00 Rain BKN110 77.5 73.6 88% 79 30.07 0.0 0.01
21 17:15 S 6 7.00 Partly Cloudy SCT120 79 72.7 81% 82 30.07 0.0
21 16:55 Calm 10.00 Fair CLR 78.3 74.5 88% 81 30.07 0.0
21 16:35 W 3 10.00 Thunderstorm CLR 79 73.6 84% 82 30.07 0.0
21 16:15 Calm 10.00 Fair CLR 81.5 71.6 72% 86 30.07 0.0
21 15:55 SW 5 10.00 Fair CLR 84.4 71.8 66% 90 30.08 0.0
21 15:35 Calm 10.00 Fair CLR 83.3 70.5 65% 88 30.08 0.0
21 15:15 S 5 10.00 Partly Cloudy SCT016 83.8 73.2 70% 90 30.08 0.0
21 14:55 SW 6 10.00 Partly Cloudy SCT016 82 75.2 80% 89 30.08 0.0
21 14:35 W 3 10.00 Partly Cloudy SCT005 80.6 74.3 81% 86 30.09 0.0
21 14:15 Calm 10.00 Light Rain SCT005 BKN036 BKN050 77.9 75.4 92% 80 30.1 0.0
21 13:55 SW 6 10.00 Thunderstorm Light Rain in Vicinity SCT033 BKN047 BKN060 75.7 74.1 84.2 73.6 95% 75 30.11 0.0 0.11 0.21
21 13:35 SW 8 7.00 Thunderstorm Light Rain in Vicinity SCT033 BKN047 OVC090 75.6 73.8 94% 75 30.12 0.0 0.1
21 13:15 Calm 3.00 Thunderstorm Heavy Rain in Vicinity Fog/Mist SCT027 SCT050 OVC090 78.4 76.5 94% 82 30.13 0.0 0.03
21 12:55 S 3 10.00 Thunderstorm Light Rain in Vicinity SCT024 SCT037 BKN085 78.6 75.6 90% 82 30.13 0.0 0.1
21 12:35 S 6 10.00 Mostly Cloudy SCT020 SCT031 BKN120 83.1 74.7 76% 90 30.12 0.0
21 12:15 W 3 10.00 Mostly Cloudy SCT017 BKN022 BKN033 82.2 72.9 73% 88 30.13 0.0
21 11:55 SW 7 10.00 Overcast BKN019 BKN024 OVC033 82.2 73.9 76% 88 30.13 0.0
21 11:35 SW 6 10.00 Overcast BKN015 OVC022 80.1 73.2 80% 84 30.13 0.0
21 11:15 SW 7 10.00 Overcast BKN015 OVC021 79.9 73.6 81% 84 30.13 0.0
21 10:55 W 6 10.00 Overcast SCT012 OVC017 79 73 82% 82 30.13 0.0
21 10:35 SW 8 10.00 Overcast BKN013 OVC018 77.7 73 86% 80 30.14 0.0
21 10:15 SW 8 10.00 Overcast BKN012 OVC019 77.4 72.9 86% 79 30.14 0.0
21 09:55 SW 6 10.00 Mostly Cloudy BKN010 BKN018 77 73 88% 78 30.14 0.0
21 09:35 SW 8 10.00 Overcast BKN008 OVC016 76.3 72.9 89% 77 30.14 0.0
21 09:15 S 5 10.00 Overcast OVC008 75.6 73 92% 75 30.14 0.0
21 08:55 SW 6 10.00 Overcast BKN005 OVC010 74.3 72.7 95% 30.14 0.0
21 08:35 SW 5 10.00 Overcast OVC005 73.8 72.5 96% 30.14 0.0
21 08:15 SW 7 7.00 Overcast OVC005 73.8 72.3 95% 30.14 0.0
21 07:55 S 8 10.00 Overcast OVC005 74.3 73 74.7 72.5 96% 30.14 0.0
21 07:35 S 6 10.00 Overcast OVC005 73.2 72.3 97% 30.13 0.0
21 07:15 S 7 7.00 Overcast OVC005 73 72.1 97% 30.13 0.0
21 06:35 S 7 10.00 Overcast OVC005 72.9 72 97% 30.13 0.0
21 06:15 SW 7 10.00 Overcast OVC003 72.9 72.1 98% 30.12 0.0
21 05:55 SW 5 10.00 Overcast OVC003 72.9 72.1 98% 30.11 0.0
21 05:35 SW 6 10.00 Overcast OVC003 72.7 72 98% 30.11 0.0
21 05:15 SW 7 10.00 Overcast OVC003 72.7 72 98% 30.11 0.0
21 04:55 SW 5 10.00 Overcast OVC003 72.7 72.1 98% 30.11 0.0
21 04:35 SW 6 5.00 Fog/Mist OVC003 72.7 72.1 98% 30.12 0.0
21 04:15 SW 6 1.50 Fog/Mist OVC003 72.5 72 98% 30.12 0.0
21 03:55 SW 7 1.75 Fog/Mist OVC003 72.5 72 98% 30.13 0.0
21 03:35 SW 7 3.00 Fog/Mist OVC003 72.5 72 98% 30.12 0.0
21 03:15 SW 6 4.00 Fog/Mist OVC003 72.7 72 98% 30.13 0.0
21 02:55 S 6 10.00 Overcast OVC003 72.7 71.8 97% 30.13 0.0
21 02:35 S 5 7.00 Fog/Mist OVC005 72.7 71.6 96% 30.13 0.0
21 02:15 S 5 10.00 Overcast OVC005 72.7 71.6 96% 30.13 0.0
21 01:55 S 7 7.00 Fog/Mist BKN007 BKN065 71.6 71.6 77.7 72.3 100% 30.14 0.0
21 01:35 S 5 10.00 Partly Cloudy SCT065 72.3 71.2 96% 30.14 0.0
21 01:15 S 5 10.00 Fair CLR 72.5 71.2 96% 30.14 0.0
21 00:55 S 5 10.00 Fair CLR 72.9 71.4 95% 30.13 0.0
21 00:35 S 6 10.00 Fair CLR 73.4 71.6 94% 30.14 0.0
21 00:15 S 5 10.00 Partly Cloudy SCT008 SCT030 73.9 72.1 94% 30.14 0.0
20 23:55 S 7 10.00 Overcast OVC008 74.5 72.5 94% 30.15 0.0
20 23:35 S 6 10.00 Overcast OVC008 74.8 72.7 93% 30.15 0.0
20 23:15 S 8 10.00 Overcast OVC008 75.2 73.2 94% 74 30.16 0.0
20 22:55 S 7 10.00 Overcast OVC010 75.6 73.6 94% 75 30.16 0.0
20 22:35 S 3 10.00 Mostly Cloudy BKN013 BKN020 75.6 73.6 94% 75 30.15 0.0
20 22:15 S 3 10.00 Overcast BKN013 BKN020 OVC034 76.1 73.9 93% 76 30.15 0.0
20 21:55 E 5 10.00 Mostly Cloudy SCT020 BKN034 BKN045 75.2 73.6 95% 74 30.15 0.0
20 21:35 Calm 10.00 Partly Cloudy SCT015 SCT038 73.8 72.9 97% 30.14 0.0
20 21:15 Calm 10.00 Fair CLR 73.8 73 98% 30.13 0.0
20 20:55 Calm 10.00 Fair CLR 74.3 73.2 96% 30.12 0.0
20 20:35 S 5 10.00 Fair CLR 76.1 72.7 89% 76 30.11 0.0
20 20:15 S 5 10.00 Fair CLR 77 72.9 87% 78 30.11 0.0
20 19:55 S 6 10.00 Fair CLR 77.9 73 83.1 77.9 85% 80 30.1 0.0 0.04
20 19:35 S 6 10.00 Fair CLR 78.6 72.5 82% 82 30.11 0.0
20 19:15 S 5 10.00 Partly Cloudy SCT023 78.8 73.2 83% 82 30.12 0.0
20 18:55 S 6 10.00 Mostly Cloudy SCT016 SCT024 BKN065 79 73 82% 82 30.12 0.0 0.04
20 18:35 S 5 7.00 Light Rain SCT016 SCT023 BKN043 79.2 74.1 85% 83 30.11 0.0 0.04
20 18:15 S 9 10.00 Mostly Cloudy BKN016 BKN022 BKN026 81.3 73.8 78% 87 30.12 0.0
20 17:55 SW 9 10.00 Mostly Cloudy SCT014 BKN020 BKN026 80.8 73.9 80% 86 30.12 0.0
20 17:35 S 7 10.00 Mostly Cloudy BKN012 BKN020 79.7 74.3 84% 84 30.12 0.0
20 17:15 S 6 10.00 Partly Cloudy SCT012 79.9 74.8 85% 85 30.12 0.0
20 16:55 SW 6 10.00 Partly Cloudy SCT034 SCT042 SCT060 79.2 74.5 86% 83 30.12 0.0
20 16:35 SW 8 10.00 Light Rain SCT034 SCT042 SCT060 78.8 74.5 87% 82 30.13 0.0
20 16:15 SW 6 10.00 Thunderstorm in Vicinity SCT033 79 73.9 85% 83 30.12 0.0
20 15:55 SW 9 10.00 Partly Cloudy SCT027 SCT033 SCT039 78.3 73.8 86% 81 30.14 0.0
20 15:35 S 9 10.00 Light Rain SCT031 SCT039 BKN048 78.3 75.2 90% 81 30.14 0.0
20 15:15 S 7 10.00 Partly Cloudy SCT050 SCT065 SCT095 79.9 74.7 84% 85 30.15 0.0
20 14:55 S 6 10.00 Fair CLR 81 73.6 78% 86 30.14 0.0
20 14:35 S 6 10.00 Fair CLR 81.5 72.7 75% 86 30.13 0.0
20 14:15 SW 5 10.00 Partly Cloudy SCT028 SCT035 SCT050 82.6 72.3 71% 88 30.14 0.0
20 13:55 W 3 10.00 Mostly Cloudy SCT028 SCT033 BKN050 83.1 71.6 83.5 71.4 68% 88 30.14 0.0 0.12
20 13:35 SE 3 10.00 Partly Cloudy SCT021 SCT033 SCT110 82.9 71.8 69% 88 30.15 0.0
20 13:15 S 3 10.00 Thunderstorm in Vicinity SCT019 SCT024 BKN033 81.9 72.9 74% 87 30.16 0.0
20 12:55 SW 3 10.00 Mostly Cloudy SCT014 BKN023 BKN033 81.1 73.2 77% 86 30.17 0.0
20 12:35 W 5 10.00 Mostly Cloudy SCT015 SCT021 BKN110 80.4 73 78% 85 30.17 0.0
20 12:15 Calm 10.00 Mostly Cloudy BKN012 BKN018 79.3 73 81% 83 30.18 0.0
20 11:55 S 5 10.00 Mostly Cloudy BKN012 BKN085 78.4 73.2 84% 81 30.19 0.0
20 11:35 SW 5 10.00 Partly Cloudy SCT010 SCT024 SCT085 77 72.9 87% 78 30.2 0.0
20 11:15 Calm 10.00 Light Rain SCT008 SCT024 SCT110 76.1 71.6 86% 77 30.19 0.0
20 10:55 Calm 10.00 Partly Cloudy SCT006 SCT110 75.6 71.8 88% 75 30.19 0.0 0.12
20 10:35 S 3 10.00 Partly Cloudy SCT006 SCT120 74.8 72.1 91% 30.18 0.0
20 10:15 S 3 10.00 Mostly Cloudy BKN008 BKN120 73.9 71.1 91% 30.18 0.0
20 09:55 S 3 10.00 Mostly Cloudy SCT007 BKN044 BKN055 73.4 71.8 95% 30.17 0.0 0.01
20 09:35 E 5 10.00 Light Rain SCT005 BKN044 OVC075 73 71.4 95% 30.17 0.0 0.01
20 09:15 E 3 10.00 Light Rain BKN005 BKN033 OVC095 72.7 71.6 96% 30.17 0.0
20 08:55 SE 5 10.00 Light Rain SCT005 SCT070 OVC095 72.5 71.4 96% 30.17 0.0 0.11
20 08:35 S 5 3.00 Rain Fog/Mist SCT005 BKN060 OVC085 72.1 71.6 98% 30.17 0.0 0.09
20 08:15 Calm 2.50 Rain Fog/Mist SCT005 BKN060 OVC085 72 71.2 98% 30.17 0.0 0.04
20 07:55 Calm 4.00 Light Rain Fog/Mist SCT005 SCT036 BKN110 71.4 70.7 73 70.5 98% 30.17 0.0 0.02 0.46
20 07:35 Calm 10.00 Light Rain SCT012 SCT080 SCT110 71.4 70.7 98% 30.16 0.0 0.01
20 07:15 SE 3 10.00 Light Rain SCT008 SCT017 BKN120 70.9 70.3 98% 30.16 0.0 0.01
20 06:55 Calm 5.00 Light Rain Fog/Mist SCT005 BKN017 BKN055 70.7 70 98% 30.15 0.0 0.42
20 06:35 Calm 1.50 Heavy Rain Fog/Mist BKN005 OVC015 71.2 70.2 96% 30.16 0.0 0.36
20 06:15 NW 3 2.50 Rain Fog/Mist OVC007 72.7 71.8 97% 30.15 0.0 0.05
20 05:55 E 5 5.00 Light Rain Fog/Mist OVC009 72.7 71.6 96% 30.14 0.0 0.02
20 05:35 Calm 10.00 Overcast OVC011 73 71.6 95% 30.14 0.0
20 05:15 SE 5 10.00 Light Rain BKN013 OVC021 72.7 71.4 96% 30.13 0.0
20 04:35 E 5 10.00 Overcast BKN008 OVC013 72.3 71.2 96% 30.13 0.0
20 04:15 E 3 10.00 Overcast OVC005 72.3 71.4 97% 30.13 0.0
20 03:55 SE 5 10.00 Overcast OVC005 72.3 71.2 96% 30.13 0.0
20 03:35 E 3 10.00 Overcast OVC005 72.1 71.1 96% 30.13 0.0
20 03:15 NE 3 10.00 Overcast OVC005 72.1 70.9 96% 30.13 0.0
20 02:55 E 6 10.00 Overcast OVC007 72 70.9 96% 30.13 0.0
20 02:35 E 6 10.00 Light Rain OVC007 71.8 70.3 95% 30.14 0.0
20 02:15 E 6 10.00 Overcast SCT007 OVC022 72 70.3 95% 30.14 0.0
20 01:55 E 3 10.00 Overcast BKN022 OVC032 71.6 70.5 77.5 70.7 96% 30.15 0.0
20 01:35 Calm 10.00 Mostly Cloudy BKN022 70.7 69.8 97% 30.15 0.0
20 01:15 Calm 10.00 Mostly Cloudy BKN024 BKN028 71.2 70 96% 30.15 0.0
20 00:55 Calm 10.00 Partly Cloudy SCT026 71.2 70 96% 30.16 0.0
20 00:35 E 3 10.00 Partly Cloudy SCT024 71.8 70 94% 30.16 0.0
20 00:15 E 5 10.00 Fair CLR 72.1 69.8 92% 30.16 0.0
19 23:55 NE 5 10.00 Partly Cloudy SCT018 72.5 70 92% 30.15 0.0
19 23:35 E 6 10.00 Overcast OVC018 73.2 70.2 90% 30.15 0.0
19 23:15 E 5 7.00 Mostly Cloudy BKN018 73.4 70.2 90% 30.15 0.0
19 22:55 E 7 10.00 Partly Cloudy SCT018 SCT025 SCT038 73.4 70.2 90% 30.14 0.0
19 22:35 NE 5 10.00 Overcast SCT012 OVC018 74.1 70.2 88% 30.15 0.0
19 22:15 NE 5 10.00 Overcast BKN008 OVC012 74.7 70.7 88% 30.14 0.0
19 21:55 N 5 10.00 Mostly Cloudy SCT008 BKN065 74.5 73.6 97% 30.14 0.0
19 21:35 Calm 10.00 Fair CLR 74.5 73.4 96% 30.13 0.0
19 21:15 Calm 10.00 Partly Cloudy SCT013 75 73.8 96% 73 30.13 0.0
19 20:55 W 5 10.00 Mostly Cloudy SCT013 BKN120 76.3 74.1 93% 76 30.12 0.0
19 20:15 SW 3 10.00 Partly Cloudy SCT120 77 73.9 90% 78 30.11 0.0
19 19:55 SW 3 10.00 Fair CLR 77.5 74.3 84.4 77.5 90% 79 30.1 0.0
19 19:35 SW 5 10.00 Partly Cloudy SCT037 SCT048 SCT050 78.3 74.3 88% 81 30.08 0.0
19 19:15 S 3 10.00 Light Rain SCT037 BKN050 BKN065 78.6 74.1 86% 82 30.08 0.0
19 18:55 S 5 10.00 Fair CLR 79.2 72.9 81% 83 30.08 0.0
Date Time (edt) Wind (mph) Vis. (mi.) Weather Sky Cond. Air Dwpt Max. Min. Relative Humidity Wind Chill (°F) Heat Index (°F) altimeter (in) sea level (mb) 1 hr 3 hr 6 hr
6 hour
Temperature (ºF) Pressure Precipitation (in)